H1 CPF 2 NER 2021 8 10 9 222 01 glonass139 H2 1808601 9139 43687 2021 8 10 0 0 0 2021 8 13 23 45 0 900 1 1 0 0 0 1 H9 10 0 59436 0.00000 0 -6570344.355 23476473.621 7524700.210 10 0 59436 900.00000 0 -6727493.625 24205240.810 4428694.037 10 0 59436 1800.00000 0 -6710445.148 24576610.076 1246675.431 10 0 59436 2700.00000 0 -6568059.253 24565074.743 -1959562.275 10 0 59436 3600.00000 0 -6353628.722 24157649.368 -5127705.104 10 0 59436 4500.00000 0 -6122386.919 23354497.761 -8196133.357 10 0 59436 5400.00000 0 -5928936.985 22169027.535 -11105126.445 10 0 59436 6300.00000 0 -5824711.809 20627445.409 -13798033.421 10 0 59436 7200.00000 0 -5855573.464 18767790.645 -16222385.430 10 0 59436 8100.00000 0 -6059655.118 16638486.097 -18330927.490 10 0 59436 9000.00000 0 -6465538.299 14296466.832 -20082548.651 10 0 59436 9900.00000 0 -7090844.104 11804964.407 -21443091.555 10 0 59436 10800.00000 0 -7941299.431 9231039.369 -22386025.075 10 0 59436 11700.00000 0 -9010319.029 6642965.225 -22892966.487 10 0 59436 12600.00000 0 -10279122.179 4107573.468 -22954042.711 10 0 59436 13500.00000 0 -11717379.995 1687670.636 -22568083.512 10 0 59436 14400.00000 0 -13284366.826 -560364.727 -21742642.897 10 0 59436 15300.00000 0 -14930567.613 -2588705.019 -20493848.402 10 0 59436 16200.00000 0 -16599673.750 -4359828.341 -18846081.462 10 0 59436 17100.00000 0 -18230883.433 -5847832.635 -16831495.336 10 0 59436 18000.00000 0 -19761409.458 -7039255.422 -14489380.428 10 0 59436 18900.00000 0 -21129088.652 -7933366.498 -11865389.864 10 0 59436 19800.00000 0 -22274982.821 -8541923.259 -9010640.976 10 0 59436 20700.00000 0 -23145861.438 -8888401.024 -5980710.975 10 0 59436 21600.00000 0 -23696461.482 -9006733.073 -2834547.104 10 0 59436 22500.00000 0 -23891429.367 -8939615.645 366686.734 10 0 59436 23400.00000 0 -23706863.496 -8736451.441 3560803.631 10 0 59436 24300.00000 0 -23131393.074 -8451020.176 6685803.793 10 0 59436 25200.00000 0 -22166748.482 -8138975.909 9681077.268 10 0 59436 26100.00000 0 -20827800.000 -7855277.711 12488575.699 10 0 59436 27000.00000 0 -19142064.003 -7651662.599 15053930.629 10 0 59436 27900.00000 0 -17148697.851 -7574267.353 17327497.279 10 0 59436 28800.00000 0 -14897025.906 -7661499.135 19265304.364 10 0 59436 29700.00000 0 -12444658.181 -7942244.030 20829892.763 10 0 59436 30600.00000 0 -9855279.555 -8434488.261 21991028.098 10 0 59436 31500.00000 0 -7196200.826 -9144409.495 22726274.737 10 0 59436 32400.00000 0 -4535772.078 -10065976.112 23021421.333 10 0 59436 33300.00000 0 -1940764.184 -11181071.375 22870750.659 10 0 59436 34200.00000 0 526174.583 -12460137.828 22277149.089 10 0 59436 35100.00000 0 2808883.180 -13863315.914 21252053.813 10 0 59436 36000.00000 0 4859777.320 -15342030.530 19815238.513 10 0 59436 36900.00000 0 6641578.604 -16840960.698 17994440.930 10 0 59436 37800.00000 0 8128612.652 -18300311.563 15824838.505 10 0 59436 38700.00000 0 9307623.130 -19658295.207 13348380.870 10 0 59436 39600.00000 0 10178068.183 -20853717.569 10612990.778 10 0 59436 40500.00000 0 10751887.183 -21828563.898 7671647.572 10 0 59436 41400.00000 0 11052747.581 -22530474.595 4581369.722 10 0 59436 42300.00000 0 11114803.293 -22915007.221 1402115.375 10 0 59436 43200.00000 0 10981016.783 -22947588.818 -1804378.340 10 0 59436 44100.00000 0 10701115.482 -22605075.239 -4975794.858 10 0 59436 45000.00000 0 10329268.956 -21876850.246 -8050452.970 10 0 59436 45900.00000 0 9921585.369 -20765416.383 -10968512.697 10 0 59436 46800.00000 0 9533533.814 -19286450.900 -13673148.040 10 0 59436 47700.00000 0 9217402.466 -17468322.679 -16111662.782 10 0 59436 48600.00000 0 9019901.295 -15351088.926 -18236526.671 10 0 59436 49500.00000 0 8980012.009 -12985012.510 -20006310.958 10 0 59436 50400.00000 0 9127177.488 -10428661.271 -21386504.207 10 0 59436 51300.00000 0 9479908.525 -7746668.348 -22350191.903 10 0 59436 52200.00000 0 10044867.903 -5007246.866 -22878586.200 10 0 59436 53100.00000 0 10816471.439 -2279562.861 -22961395.180 10 0 59436 54000.00000 0 11777023.621 368923.882 -22597024.336 10 0 59436 54900.00000 0 12897382.619 2875040.165 -21792606.361 10 0 59436 55800.00000 0 14138126.890 5182293.221 -20563858.767 10 0 59436 56700.00000 0 15451174.235 7242978.613 -18934772.323 10 0 59436 57600.00000 0 16781784.889 9019914.804 -16937136.657 10 0 59436 58500.00000 0 18070863.864 10487732.898 -14609912.694 10 0 59436 59400.00000 0 19257465.006 11633668.988 -11998464.634 10 0 59436 60300.00000 0 20281390.765 12457827.679 -9153667.030 10 0 59436 61200.00000 0 21085777.534 12972907.682 -6130905.116 10 0 59436 62100.00000 0 21619557.228 13203403.255 -2988988.608 10 0 59436 63000.00000 0 21839691.137 13184317.333 210999.117 10 0 59436 63900.00000 0 21713081.895 12959442.717 3406893.230 10 0 59436 64800.00000 0 21218083.246 12579285.727 6536657.305 10 0 59436 65700.00000 0 20345544.464 12098721.525 9539586.911 10 0 59436 66600.00000 0 19099346.003 11574481.162 12357483.365 10 0 59436 67500.00000 0 17496404.430 11062577.033 14935775.121 10 0 59436 68400.00000 0 15566146.845 10615775.491 17224565.602 10 0 59436 69300.00000 0 13349477.047 10281222.810 19179587.998 10 0 59436 70200.00000 0 10897276.581 10098323.909 20763049.687 10 0 59436 71100.00000 0 8268502.689 10096962.213 21944351.254 10 0 59436 72000.00000 0 5527961.575 10296134.660 22700667.463 10 0 59436 72900.00000 0 2743848.304 10703058.457 23017380.202 10 0 59436 73800.00000 0 -14846.143 11312786.671 22888355.993 10 0 59436 74700.00000 0 -2680954.752 12108348.732 22316063.327 10 0 59436 75600.00000 0 -5191674.622 13061410.424 21311527.766 10 0 59436 76500.00000 0 -7490923.864 14133426.552 19894125.403 10 0 59436 77400.00000 0 -9531419.048 15277239.199 18091218.013 10 0 59436 78300.00000 0 -11276388.356 16439055.988 15937635.903 10 0 59436 79200.00000 0 -12700850.202 17560726.875 13475017.136 10 0 59436 80100.00000 0 -13792404.671 18582225.192 10751014.572 10 0 59436 81000.00000 0 -14551505.071 19444229.776 7818384.689 10 0 59436 81900.00000 0 -14991198.282 20090700.176 4733974.616 10 0 59436 82800.00000 0 -15136344.592 20471336.607 1557626.182 10 0 59436 83700.00000 0 -15022349.608 20543820.558 -1648982.322 10 0 59436 84600.00000 0 -14693461.445 20275740.599 -4823534.377 10 0 59436 85500.00000 0 -14200704.912 19646120.731 -7904289.841 10 0 59437 0.00000 0 -13599540.098 18646485.175 -10831291.787 10 0 59437 900.00000 0 -12947344.867 17281412.297 -13547541.635 10 0 59437 1800.00000 0 -12300827.791 15568553.686 -16000117.921 10 0 59437 2700.00000 0 -11713482.891 13538113.702 -18141217.034 10 0 59437 3600.00000 0 -11233193.568 11231811.718 -19929094.078 10 0 59437 4500.00000 0 -10900089.025 8701368.098 -21328884.869 10 0 59437 5400.00000 0 -10744744.368 6006576.881 -22313292.518 10 0 59437 6300.00000 0 -10786801.505 3213044.995 -22863124.738 10 0 59437 7200.00000 0 -11034069.796 389692.267 -22967671.091 10 0 59437 8100.00000 0 -11482144.956 -2393883.595 -22624912.750 10 0 59437 9000.00000 0 -12114562.605 -5070067.210 -21841560.659 10 0 59437 9900.00000 0 -12903480.015 -7575799.916 -20632921.474 10 0 59437 10800.00000 0 -13810857.115 -9854961.257 -19022594.092 10 0 59437 11700.00000 0 -14790086.544 -11860458.598 -17042002.957 10 0 59437 12600.00000 0 -15788003.392 -13555938.288 -14729777.669 10 0 59437 13500.00000 0 -16747189.146 -14917047.941 -12130991.438 10 0 59437 14400.00000 0 -17608471.882 -15932198.442 -9296273.822 10 0 59437 15300.00000 0 -18313516.429 -16602795.448 -6280815.770 10 0 59437 16200.00000 0 -18807394.550 -16942932.700 -3143287.114 10 0 59437 17100.00000 0 -19041026.176 -16978562.202 55311.668 10 0 59437 18000.00000 0 -18973388.403 -16746178.297 3252840.232 10 0 59437 18900.00000 0 -18573399.032 -16291073.143 6387227.932 10 0 59437 19800.00000 0 -17821395.399 -15665238.842 9397678.288 10 0 59437 20700.00000 0 -16710146.564 -14925006.023 12225844.699 10 0 59437 21600.00000 0 -15245356.643 -14128519.274 14816954.865 10 0 59437 22500.00000 0 -13445638.454 -13333156.199 17120862.628 10 0 59437 23400.00000 0 -11341958.794 -12592998.595 19093007.663 10 0 59437 24300.00000 0 -8976578.402 -11956461.600 20695265.601 10 0 59437 25200.00000 0 -6401530.410 -11464179.569 21896673.425 10 0 59437 26100.00000 0 -3676699.880 -11147236.437 22674017.387 10 0 59437 27000.00000 0 -867583.085 -11025813.771 23012273.328 10 0 59437 27900.00000 0 1957182.001 -11108312.335 22904891.902 10 0 59437 28800.00000 0 4728413.239 -11390983.460 22353923.761 10 0 59437 29700.00000 0 7379004.118 -11858085.486 21369982.574 10 0 59437 30600.00000 0 9846459.138 -12482559.030 19972046.300 10 0 59437 31500.00000 0 12075241.228 -13227193.480 18187099.918 10 0 59437 32400.00000 0 14018835.328 -14046236.782 16049625.475 10 0 59437 33300.00000 0 15641443.444 -14887382.171 13600948.038 10 0 59437 34200.00000 0 16919241.306 -15694049.557 10888448.803 10 0 59437 35100.00000 0 17841144.587 -16407866.649 7964659.274 10 0 59437 36000.00000 0 18409052.701 -16971246.099 4886252.788 10 0 59437 36900.00000 0 18637559.701 -17329950.279 1712952.111 10 0 59437 37800.00000 0 18553144.136 -17435535.302 -1493626.277 10 0 59437 38700.00000 0 18192871.546 -17247570.339 -4671168.993 10 0 59437 39600.00000 0 17602664.004 -16735537.279 -7757880.111 10 0 59437 40500.00000 0 16835209.592 -15880328.873 -10693688.950 10 0 59437 41400.00000 0 15947600.226 -14675280.169 -13421427.087 10 0 59437 42300.00000 0 14998797.977 -13126687.721 -15887950.663 10 0 59437 43200.00000 0 14047037.557 -11253792.601 -18045185.233 10 0 59437 44100.00000 0 13147275.465 -9088226.027 -19851071.929 10 0 59437 45000.00000 0 12348794.408 -6672939.265 -21270395.639 10 0 59437 45900.00000 0 11693064.983 -4060661.340 -22275478.492 10 0 59437 46800.00000 0 11211955.614 -1311948.128 -22846724.675 10 0 59437 47700.00000 0 10926366.860 1507096.193 -22973005.664 10 0 59437 48600.00000 0 10845348.025 4327330.533 -22651878.252 10 0 59437 49500.00000 0 10965733.431 7079216.564 -21889631.111 10 0 59437 50400.00000 0 11272313.505 9695476.519 -20701159.080 10 0 59437 51300.00000 0 11738533.027 12113658.439 -19109667.822 10 0 59437 52200.00000 0 12327686.439 14278502.063 -17146214.884 10 0 59437 53100.00000 0 12994558.916 16144006.950 -14849096.490 10 0 59437 54000.00000 0 13687442.982 17675117.209 -12263092.514 10 0 59437 54900.00000 0 14350444.485 18848953.425 -9438584.898 10 0 59437 55800.00000 0 14925979.514 19655541.534 -6430567.460 10 0 59437 56700.00000 0 15357355.868 20098009.827 -3297567.118 10 0 59437 57600.00000 0 15591329.233 20192247.750 -100498.326 10 0 59437 58500.00000 0 15580525.564 19966042.837 3098526.185 10 0 59437 59400.00000 0 15285627.062 19457734.150 6237404.599 10 0 59437 60300.00000 0 14677229.424 18714440.701 9255251.245 10 0 59437 61200.00000 0 13737292.205 17789940.982 12093574.239 10 0 59437 62100.00000 0 12460121.444 16742293.948 14697402.859 10 0 59437 63000.00000 0 10852843.439 15631302.139 17016343.391 10 0 59437 63900.00000 0 8935349.979 14515923.697 19005543.692 10 0 59437 64800.00000 0 6739717.167 13451741.582 20626549.009 10 0 59437 65700.00000 0 4309121.707 12488595.358 21848033.749 10 0 59437 66600.00000 0 1696299.125 11668473.775 22646396.322 10 0 59437 67500.00000 0 -1038393.078 11023755.203 23006206.836 10 0 59437 68400.00000 0 -3829228.370 10575868.380 22920499.969 10 0 59437 69300.00000 0 -6607588.364 10334428.556 22390908.018 10 0 59437 70200.00000 0 -9304563.447 10296884.490 21427631.794 10 0 59437 71100.00000 0 -11853570.953 10448690.808 20049249.718 10 0 59437 72000.00000 0 -14192883.998 10763998.631 18282368.132 10 0 59437 72900.00000 0 -16267967.619 11206836.045 16161118.630 10 0 59437 73800.00000 0 -18033526.345 11732729.660 13726510.768 10 0 59437 74700.00000 0 -19455178.723 12290700.075 11025651.369 10 0 59437 75600.00000 0 -20510689.414 12825548.190 8110844.136 10 0 59437 76500.00000 0 -21190707.390 13280336.808 5038585.755 10 0 59437 77400.00000 0 -21498979.026 13598963.223 1868477.119 10 0 59437 78300.00000 0 -21452026.678 13728714.172 -1337929.836 10 0 59437 79200.00000 0 -21078305.725 13622694.648 -4518327.505 10 0 59437 80100.00000 0 -20416874.998 13242026.871 -7610866.686 10 0 59437 81000.00000 0 -19515636.324 12557725.031 -10555365.271 10 0 59437 81900.00000 0 -18429217.236 11552164.695 -13294487.309 10 0 59437 82800.00000 0 -17216586.302 10220082.850 -15774868.492 10 0 59437 83700.00000 0 -15938502.085 8569064.232 -17948165.251 10 0 59437 84600.00000 0 -14654903.849 6619491.364 -19772006.153 10 0 59437 85500.00000 0 -13422354.790 4403958.542 -21210826.192 10 0 59438 0.00000 0 -12291646.211 1966172.777 -22236567.146 10 0 59438 900.00000 0 -11305664.476 -640613.908 -22829229.952 10 0 59438 1800.00000 0 -10497610.223 -3355575.250 -22977267.853 10 0 59438 2700.00000 0 -9889646.660 -6112603.959 -22677812.714 10 0 59438 3600.00000 0 -9492031.928 -8842831.142 -21936730.023 10 0 59438 4500.00000 0 -9302773.135 -11477267.189 -20768501.543 10 0 59438 5400.00000 0 -9307815.328 -13949453.942 -19195938.133 10 0 59438 6300.00000 0 -9481756.722 -16198017.568 -17249728.600 10 0 59438 7200.00000 0 -9789058.920 -18169015.651 -14967833.757 10 0 59438 8100.00000 0 -10185699.763 -19817980.864 -12394737.965 10 0 59438 9000.00000 0 -10621197.722 -21111576.475 -9580573.309 10 0 59438 9900.00000 0 -11040920.997 -22028795.280 -6580134.227 10 0 59438 10800.00000 0 -11388582.500 -22561653.103 -3451802.516 10 0 59438 11700.00000 0 -11608814.175 -22715349.355 -256404.436 10 0 59438 12600.00000 0 -11649711.020 -22507889.659 2943977.027 10 0 59438 13500.00000 0 -11465236.699 -21969188.329 6087210.980 10 0 59438 14400.00000 0 -11017388.833 -21139690.192 9112324.656 10 0 59438 15300.00000 0 -10278032.531 -20068571.319 11960682.945 10 0 59438 16200.00000 0 -9230324.979 -18811595.541 14577118.730 10 0 59438 17100.00000 0 -7869671.268 -17428717.588 16910992.662 10 0 59438 18000.00000 0 -6204171.479 -15981533.809 18917162.564 10 0 59438 18900.00000 0 -4254540.177 -14530687.121 20556844.879 10 0 59438 19800.00000 0 -2053501.354 -13133334.243 21798352.756 10 0 59438 20700.00000 0 355316.536 -11840780.163 22617697.786 10 0 59438 21600.00000 0 2918940.477 -10696377.445 22999045.047 10 0 59438 22500.00000 0 5577004.253 -9733776.772 22935013.632 10 0 59438 23400.00000 0 8264011.815 -8975600.500 22426817.559 10 0 59438 24300.00000 0 10911820.595 -8432593.541 21484244.565 10 0 59438 25200.00000 0 13452243.701 -8103286.266 20125473.025 10 0 59438 26100.00000 0 15819664.750 -7974183.165 18376729.878 10 0 59438 27000.00000 0 17953558.438 -8020469.340 16271795.194 10 0 59438 27900.00000 0 19800813.385 -8207205.582 13851361.665 10 0 59438 28800.00000 0 21317761.355 -8490962.412 11162260.054 10 0 59438 29700.00000 0 22471828.758 -8821825.075 8256564.231 10 0 59438 30600.00000 0 23242741.431 -9145685.640 5190591.863 10 0 59438 31500.00000 0 23623231.921 -9406725.983 2023819.281 10 0 59438 32400.00000 0 23619219.035 -9549986.861 -1182269.067 10 0 59438 33300.00000 0 23249451.380 -9523914.141 -4365374.453 10 0 59438 34200.00000 0 22544629.114 -9282773.722 -7463597.562 10 0 59438 35100.00000 0 21546040.242 -8788831.716 -10416647.964 10 0 59438 36000.00000 0 20303768.453 -8014206.059 -13167025.134 10 0 59438 36900.00000 0 18874547.808 -6942309.336 -15661147.049 10 0 59438 37800.00000 0 17319354.762 -5568819.834 -17850403.469 10 0 59438 38700.00000 0 15700839.238 -3902137.672 -19692112.531 10 0 59438 39600.00000 0 14080703.419 -1963304.831 -21150361.133 10 0 59438 40500.00000 0 12517139.135 214609.421 -22196712.148 10 0 59438 41400.00000 0 11062432.146 2587633.482 -22810764.237 10 0 59438 42300.00000 0 9760834.459 5102482.719 -22980552.993 10 0 59438 43200.00000 0 8646794.328 7698547.508 -22702785.516 10 0 59438 44100.00000 0 7743618.152 10310197.425 -21982903.795 10 0 59438 45000.00000 0 7062620.183 12869305.485 -20834975.747 10 0 59438 45900.00000 0 6602794.995 15307887.130 -19281416.232 10 0 59438 46800.00000 0 6351025.443 17560743.710 -17352543.710 10 0 59438 47700.00000 0 6282816.060 19567999.956 -15085981.584 10 0 59438 48600.00000 0 6363519.455 21277429.515 -12525916.349 10 0 59438 49500.00000 0 6550002.348 22646471.581 -9722227.558 10 0 59438 50400.00000 0 6792679.309 23643854.744 -6729507.313 10 0 59438 51300.00000 0 7037826.667 24250760.916 -3605989.113 10 0 59438 52200.00000 0 7230077.415 24461481.737 -412407.705 10 0 59438 53100.00000 0 7314990.461 24283541.338 2789187.018 10 0 59438 54000.00000 0 7241584.728 23737281.941 5936638.391 10 0 59438 54900.00000 0 6964730.453 22854931.342 8968889.695 10 0 59438 55800.00000 0 6447296.427 21679193.000 11827165.495 10 0 59438 56700.00000 0 5661962.585 20261419.223 14456104.892 10 0 59438 57600.00000 0 4592621.652 18659445.010 16804825.170 10 0 59438 58500.00000 0 3235311.068 16935173.827 18827896.024 10 0 59438 59400.00000 0 1598636.100 15152016.405 20486206.615 10 0 59438 60300.00000 0 -296333.803 13372289.072 21747709.970 10 0 59438 61200.00000 0 -2416691.541 11654679.458 22588031.591 10 0 59438 62100.00000 0 -4718816.498 10051883.994 22990931.818 10 0 59438 63000.00000 0 -7149950.726 8608514.271 22948614.006 10 0 59438 63900.00000 0 -9650163.093 7359358.077 22461873.250 10 0 59438 64800.00000 0 -12154621.578 6328066.177 21540083.079 10 0 59438 65700.00000 0 -14596081.270 5526318.431 20201020.196 10 0 59438 66600.00000 0 -16907486.486 4953503.280 18470530.021 10 0 59438 67500.00000 0 -19024580.626 4596923.492 16382038.573 10 0 59438 68400.00000 0 -20888416.597 4432519.476 13975918.786 10 0 59438 69300.00000 0 -22447664.171 4426080.044 11298722.223 10 0 59438 70200.00000 0 -23660618.581 4534890.161 8402289.634 10 0 59438 71100.00000 0 -24496826.510 4709746.782 5342756.350 10 0 59438 72000.00000 0 -24938261.000 4897258.204 2179470.878 10 0 59438 72900.00000 0 -24979995.334 5042329.978 -1026152.943 10 0 59438 73800.00000 0 -24630346.717 5090732.131 -4211828.215 10 0 59438 74700.00000 0 -23910482.647 4991638.519 -7315608.248 10 0 59438 75600.00000 0 -22853505.646 4700029.831 -10277096.803 10 0 59438 76500.00000 0 -21503054.035 4178857.122 -13038631.054 10 0 59438 77400.00000 0 -19911477.155 3400872.644 -15546413.236 10 0 59438 78300.00000 0 -18137661.553 2350048.634 -17751568.085 10 0 59438 79200.00000 0 -16244599.595 1022522.057 -19611104.555 10 0 59438 80100.00000 0 -14296803.010 -572976.536 -21088762.240 10 0 59438 81000.00000 0 -12357670.404 -2415229.987 -22155725.408 10 0 59438 81900.00000 0 -10486919.659 -4471174.598 -22791190.272 10 0 59438 82800.00000 0 -8738193.401 -6697047.694 -22982774.104 10 0 59438 83700.00000 0 -7156938.111 -9039995.666 -22726758.104 10 0 59438 84600.00000 0 -5778645.729 -11440075.865 -22028159.231 10 0 59438 85500.00000 0 -4627531.187 -13832568.877 -20900629.694 10 0 59439 0.00000 0 -3715700.544 -16150504.634 -19366186.251 10 0 59439 900.00000 0 -3042843.705 -18327296.671 -17454774.589 10 0 59439 1800.00000 0 -2596462.766 -20299374.305 -15203678.270 10 0 59439 2700.00000 0 -2352625.638 -22008701.964 -12656783.392 10 0 59439 3600.00000 0 -2277210.238 -23405081.119 -9863714.463 10 0 59439 4500.00000 0 -2327585.758 -24448137.719 -6878858.802 10 0 59439 5400.00000 0 -2454657.744 -25108912.757 -3760299.280 10 0 59439 6300.00000 0 -2605188.986 -25370989.901 -568676.939 10 0 59439 7200.00000 0 -2724296.639 -25231113.905 2633993.499 10 0 59439 8100.00000 0 -2758018.795 -24699275.150 5785531.552 10 0 59439 9000.00000 0 -2655841.186 -23798258.128 8824798.404 10 0 59439 9900.00000 0 -2373076.797 -22562674.253 11692880.067 10 0 59439 10800.00000 0 -1872997.755 -21037520.782 14334223.513 10 0 59439 11700.00000 0 -1128629.656 -19276327.230 16697704.201 10 0 59439 12600.00000 0 -124132.970 -17338967.467 18737605.067 10 0 59439 13500.00000 0 1144286.359 -15289229.096 20414489.153 10 0 59439 14400.00000 0 2667975.357 -13192241.211 21695950.269 10 0 59439 15300.00000 0 4425958.547 -11111867.051 22557228.462 10 0 59439 16200.00000 0 6385583.939 -9108168.941 22981679.668 10 0 59439 17100.00000 0 8503664.586 -7235049.527 22961091.542 10 0 59439 18000.00000 0 10728069.408 -5538165.941 22495840.020 10 0 59439 18900.00000 0 12999698.719 -4053202.025 21594883.924 10 0 59439 19800.00000 0 15254764.137 -2804569.103 20275597.540 10 0 59439 20700.00000 0 17427279.788 -1804588.320 18563443.814 10 0 59439 21600.00000 0 19451662.946 -1053187.766 16491493.529 10 0 59439 22500.00000 0 21265337.286 -538126.594 14099798.462 10 0 59439 23400.00000 0 22811231.253 -235736.628 11434629.332 10 0 59439 24300.00000 0 24040067.932 -112150.454 8547591.878 10 0 59439 25200.00000 0 24912350.803 -124964.636 5494636.935 10 0 59439 26100.00000 0 25399961.874 -225268.314 2334982.784 10 0 59439 27000.00000 0 25487304.455 -359951.757 -870029.964 10 0 59439 27900.00000 0 25171941.521 -474197.256 -4058128.992 10 0 59439 28800.00000 0 24464701.650 -514046.617 -7167323.050 10 0 59439 29700.00000 0 23389246.812 -428935.826 -10137112.870 10 0 59439 30600.00000 0 21981119.091 -174088.422 -12909675.963 10 0 59439 31500.00000 0 20286305.504 287335.180 -15431001.276 10 0 59439 32400.00000 0 18359380.643 982425.076 -17651950.726 10 0 59439 33300.00000 0 16261304.837 1927124.501 -19529226.032 10 0 59439 34200.00000 0 14056970.260 3125308.553 -21026221.172 10 0 59439 35100.00000 0 11812598.105 4568379.793 -22113743.225 10 0 59439 36000.00000 0 9593096.184 6235399.385 -22770587.088 10 0 59439 36900.00000 0 7459487.994 8093749.716 -22983952.528 10 0 59439 37800.00000 0 5466521.062 10100301.788 -22749695.307 10 0 59439 38700.00000 0 3660554.646 12203039.227 -22072407.431 10 0 59439 39600.00000 0 2077814.953 14343071.272 -20965325.050 10 0 59439 40500.00000 0 743090.287 16456950.570 -19450065.944 10 0 59439 41400.00000 0 -331080.268 18479198.691 -17556201.944 10 0 59439 42300.00000 0 -1144691.891 20344933.255 -15320675.011 10 0 59439 43200.00000 0 -1710022.569 21992486.382 -12787068.749 10 0 59439 44100.00000 0 -2050857.637 23365904.465 -10004750.149 10 0 59439 45000.00000 0 -2201225.014 24417224.284 -7027898.942 10 0 59439 45900.00000 0 -2203696.560 25108430.087 -3914444.296 10 0 59439 46800.00000 0 -2107329.253 25413009.874 -724930.276 10 0 59439 47700.00000 0 -1965334.922 25317046.158 2478666.935 10 0 59439 48600.00000 0 -1832578.504 24819796.309 5634146.415 10 0 59439 49500.00000 0 -1763011.704 23933739.219 8680290.544 10 0 59439 50400.00000 0 -1807151.181 22684087.452 11558049.916 10 0 59439 51300.00000 0 -2009708.116 21107786.463 14211682.271 10 0 59439 52200.00000 0 -2407469.184 19252043.690 16589823.848 10 0 59439 53100.00000 0 -3027517.987 17172449.664 18646473.103 10 0 59439 54000.00000 0 -3885871.497 14930769.831 20341868.870 10 0 59439 54900.00000 0 -4986588.579 12592498.892 21643247.269 10 0 59439 55800.00000 0 -6321387.875 10224278.879 22525463.989 10 0 59439 56700.00000 0 -7869791.362 7891287.228 22971471.210 10 0 59439 57600.00000 0 -9599788.216 5654701.960 22972641.037 10 0 59439 58500.00000 0 -11468992.273 3569347.683 22528929.871 10 0 59439 59400.00000 0 -13426246.222 1681618.479 21648880.898 10 0 59439 60300.00000 0 -15413607.314 27762.322 20349464.504 10 0 59439 61200.00000 0 -17368633.582 -1367402.920 18655759.124 10 0 59439 62100.00000 0 -19226877.004 -2491289.648 16600477.768 10 0 59439 63000.00000 0 -20924481.239 -3343824.199 14223348.081 10 0 59439 63900.00000 0 -22400776.622 -3937202.582 11570356.627 10 0 59439 64800.00000 0 -23600764.789 -4295128.637 8692870.595 10 0 59439 65700.00000 0 -24477389.211 -4451566.521 5646652.676 10 0 59439 66600.00000 0 -24993496.216 -4449059.766 2490787.277 10 0 59439 67500.00000 0 -25123403.499 -4336687.603 -713461.768 10 0 59439 68400.00000 0 -24854009.157 -4167744.837 -3903840.108 10 0 59439 69300.00000 0 -24185393.192 -3997243.524 -7018315.095 10 0 59439 70200.00000 0 -23130884.782 -3879342.760 -9996287.330 10 0 59439 71100.00000 0 -21716590.978 -3864816.230 -12779777.278 10 0 59439 72000.00000 0 -19980405.382 -3998665.939 -15314562.876 10 0 59439 72900.00000 0 -17970537.469 -4317984.573 -17551245.106 10 0 59439 73800.00000 0 -15743623.514 -4850158.577 -19446219.895 10 0 59439 74700.00000 0 -13362498.085 -5611489.552 -20962536.515 10 0 59439 75600.00000 0 -10893719.290 -6606293.915 -22070625.195 10 0 59439 76500.00000 0 -8404951.489 -7826520.344 -22748879.267 10 0 59439 77400.00000 0 -5962315.171 -9251902.490 -22984080.158 10 0 59439 78300.00000 0 -3627814.922 -10850641.667 -22771656.822 10 0 59439 79200.00000 0 -1456952.976 -12580591.629 -22115774.480 10 0 59439 80100.00000 0 503372.021 -14390896.182 -21029251.003 10 0 59439 81000.00000 0 2216593.772 -16224011.057 -19533302.717 10 0 59439 81900.00000 0 3657763.118 -18018025.183 -17657124.796 10 0 59439 82800.00000 0 4814336.268 -19709183.591 -15437314.770 10 0 59439 83700.00000 0 5686435.000 -21234505.732 -12917150.829 10 0 59439 84600.00000 0 6286569.848 -22534388.830 -10145739.499 10 0 59439 85500.00000 0 6638839.913 -23555086.560 -7177050.044 99